Date String (YYYY-MM-DD hh:mm:ss) UTC,Instrument flags,absolute air pressure of the measurement (hPa),sample flow rate (lpm),inlet stack bypass flow (lpm),air temperature of the measurement (°C),ambient temperature measured by the external sensor (°C),aerosol sample conditioner tube jacket temperature (°C),OPC LED temperature (°C),internal box temperature (°C),relative humidity of the measurement (%),span deviation,mass concentration of particles derived from Lorenz-Mie calculation of OPC scattering (μg/m³),mass concentration of particles derived from Lorenz-Mie calculation of OPC scattering (μg/m³),mass concentration of particles derived from Lorenz-Mie calculation of OPC scattering (μg/m³)
DateTimeUTC,F1_M11,P_M11,Q1_M11,Q2_M11,T1_M11,T2_M11,T3_M11,T4_M11,T5_M11,U1_M11,ZSPAN_M11,X0_M11,X2_M11,X1_M11
2023-08-11 02:00:00,SystemResetWarning,0828.7,5.01,000.00,029.0,026.9,000.0,037.4,030.7,16.4,0000.0,0008.88,0004.31,0003.89
2023-08-11 02:01:00,SystemResetWarning,0828.7,5.00,000.00,029.1,027.2,000.0,037.4,030.8,16.9,0000.0,0008.96,0004.31,0003.89
2023-08-11 02:02:00,SystemResetWarning,0828.7,4.99,000.00,029.1,027.5,000.0,037.5,030.8,17.0,0000.0,0008.87,0004.27,0003.89
2023-08-11 02:03:00,SystemResetWarning,0828.7,5.00,000.00,029.1,027.7,000.0,037.5,030.9,17.2,0000.0,0008.93,0004.28,0003.89
2023-08-11 02:04:00,SystemResetWarning,0828.7,4.99,000.00,029.2,026.8,000.0,037.4,030.8,17.3,0000.0,0008.78,0004.29,0003.88
2023-08-11 02:05:00,SystemResetWarning,0828.7,5.00,000.00,029.1,024.9,000.0,037.3,030.4,17.4,0000.0,0008.39,0004.29,0003.87
2023-08-11 02:06:00,SystemResetWarning,0828.7,5.01,000.00,029.0,024.6,000.0,037.2,030.3,17.6,0000.0,0008.59,0004.28,0003.85
2023-08-11 02:07:00,SystemResetWarning,0828.8,5.02,000.00,028.9,024.9,000.0,037.2,030.2,17.8,0000.0,0009.53,0004.27,0003.83
2023-08-11 02:08:00,SystemResetWarning,0828.8,5.00,000.00,028.8,025.3,000.0,037.2,030.2,18.0,0000.0,0009.93,0004.21,0003.82
2023-08-11 02:09:00,SystemResetWarning,0828.8,5.00,000.00,028.8,025.8,000.0,037.3,030.3,17.8,0000.0,0010.11,0004.20,0003.81
2023-08-11 02:10:00,SystemResetWarning,0828.9,5.00,000.00,028.9,026.3,000.0,037.3,030.4,17.7,0000.0,0010.12,0004.24,0003.80
2023-08-11 02:11:00,SystemResetWarning,0828.9,4.99,000.00,028.9,026.6,000.0,037.3,030.5,17.5,0000.0,0010.47,0004.25,0003.79
2023-08-11 02:12:00,SystemResetWarning,0829.0,5.00,000.00,028.9,027.0,000.0,037.3,030.6,17.3,0000.0,0010.54,0004.27,0003.78
2023-08-11 02:13:00,SystemResetWarning,0828.9,5.00,000.00,028.9,027.3,000.0,037.4,030.7,17.2,0000.0,0010.58,0004.30,0003.77
2023-08-11 02:14:00,SystemResetWarning,0828.9,4.99,000.00,029.0,027.5,000.0,037.4,030.8,17.9,0000.0,0010.95,0004.33,0003.76
2023-08-11 02:15:00,SystemResetWarning,0829.0,4.99,000.00,029.0,027.7,000.0,037.4,030.8,18.0,0000.0,0011.23,0004.32,0003.76
2023-08-11 02:16:00,SystemResetWarning,0829.0,5.00,000.00,029.1,027.9,000.0,037.5,030.9,18.4,0000.0,0011.47,0004.32,0003.77
2023-08-11 02:17:00,SystemResetWarning,0828.9,4.99,000.00,029.1,027.5,000.0,037.4,030.9,18.4,0000.0,0011.53,0004.32,0003.77
2023-08-11 02:18:00,SystemResetWarning,0828.9,5.00,000.00,029.1,025.8,000.0,037.3,030.6,19.0,0000.0,0010.75,0004.31,0003.77
2023-08-11 02:19:00,SystemResetWarning,0828.9,5.02,000.00,029.1,025.5,000.0,037.2,030.5,19.0,0000.0,0010.25,0004.34,0003.78
2023-08-11 02:20:00,SystemResetWarning,0828.9,5.00,000.00,029.0,025.8,000.0,037.3,030.4,19.6,0000.0,0010.14,0004.37,0003.80
2023-08-11 02:21:00,SystemResetWarning,0828.9,5.00,000.00,029.0,026.1,000.0,037.3,030.4,19.8,0000.0,0009.98,0004.35,0003.81
2023-08-11 02:22:00,SystemResetWarning,0828.9,4.99,000.00,029.0,026.5,000.0,037.4,030.5,20.0,0000.0,0009.43,0004.39,0003.82
2023-08-11 02:23:00,SystemResetWarning,0828.9,5.00,000.00,029.0,026.9,000.0,037.4,030.7,20.0,0000.0,0009.12,0004.37,0003.81
2023-08-11 02:24:00,SystemResetWarning,0828.9,5.00,000.00,029.0,027.2,000.0,037.4,030.7,20.1,0000.0,0009.12,0004.36,0003.82
2023-08-11 02:25:00,SystemResetWarning,0828.9,4.98,000.00,029.1,027.4,000.0,037.5,030.8,20.1,0000.0,0008.88,0004.34,0003.82
2023-08-11 02:26:00,SystemResetWarning,0828.9,5.00,000.00,029.1,027.7,000.0,037.5,030.9,20.1,0000.0,0008.37,0004.33,0003.82
2023-08-11 02:27:00,SystemResetWarning,0828.9,5.01,000.00,029.2,027.9,000.0,037.5,030.9,20.1,0000.0,0008.37,0004.35,0003.82
2023-08-11 02:28:00,SystemResetWarning,0828.9,4.98,000.00,029.2,026.9,000.0,037.4,030.7,20.2,0000.0,0008.79,0004.38,0003.83
2023-08-11 02:29:00,SystemResetWarning,0829.0,5.01,000.00,029.1,025.6,000.0,037.3,030.5,20.2,0000.0,0008.94,0004.41,0003.84
2023-08-11 02:30:00,SystemResetWarning,0828.9,5.01,000.00,029.1,025.6,000.0,037.3,030.4,20.3,0000.0,0009.74,0004.42,0003.85
2023-08-11 02:31:00,SystemResetWarning,0828.9,4.99,000.00,029.0,025.9,000.0,037.3,030.4,20.3,0000.0,0009.62,0004.41,0003.85
2023-08-11 02:32:00,SystemResetWarning,0828.9,5.00,000.00,029.0,026.3,000.0,037.4,030.5,20.4,0000.0,0009.84,0004.44,0003.84
2023-08-11 02:33:00,SystemResetWarning,0829.0,5.00,000.00,029.0,026.6,000.0,037.4,030.6,20.3,0000.0,0010.00,0004.43,0003.84
2023-08-11 02:34:00,SystemResetWarning,0829.0,5.00,000.00,029.0,027.0,000.0,037.4,030.7,20.2,0000.0,0010.74,0004.44,0003.85
2023-08-11 02:35:00,SystemResetWarning,0829.0,5.00,000.00,029.1,027.3,000.0,037.5,030.8,20.1,0000.0,0010.73,0004.44,0003.86
2023-08-11 02:36:00,SystemResetWarning,0829.0,5.00,000.00,029.1,027.5,000.0,037.5,030.8,20.2,0000.0,0010.93,0004.46,0003.87
2023-08-11 02:37:00,SystemResetWarning,0829.1,4.99,000.00,029.1,027.7,000.0,037.5,030.9,20.3,0000.0,0011.38,0004.49,0003.88
2023-08-11 02:38:00,SystemResetWarning,0829.1,5.00,000.00,029.2,027.9,000.0,037.6,031.0,20.2,0000.0,0011.67,0004.51,0003.90
2023-08-11 02:39:00,SystemResetWarning,0829.1,5.00,000.00,029.2,027.3,000.0,037.5,030.9,20.0,0000.0,0011.05,0004.48,0003.92
2023-08-11 02:40:00,SystemResetWarning,0829.0,5.01,000.00,029.2,025.7,000.0,037.4,030.6,20.0,0000.0,0011.08,0004.53,0003.97
2023-08-11 02:41:00,SystemResetWarning,0829.0,5.02,000.00,029.1,025.6,000.0,037.3,030.5,20.1,0000.0,0010.93,0004.60,0004.03
2023-08-11 02:42:00,SystemResetWarning,0829.0,5.00,000.00,029.0,025.8,000.0,037.4,030.4,20.0,0000.0,0011.21,0004.65,0004.10
2023-08-11 02:43:00,SystemResetWarning,0829.1,5.00,000.00,029.0,026.2,000.0,037.4,030.5,19.8,0000.0,0011.47,0004.75,0004.18
2023-08-11 02:44:00,SystemResetWarning,0829.0,4.99,000.00,029.0,026.6,000.0,037.5,030.6,19.6,0000.0,0011.56,0004.88,0004.28
2023-08-11 02:45:00,SystemResetWarning,0829.1,5.00,000.00,029.0,026.9,000.0,037.5,030.7,19.2,0000.0,0010.93,0005.02,0004.38
2023-08-11 02:46:00,SystemResetWarning,0829.1,5.00,000.00,029.1,027.2,000.0,037.5,030.8,18.9,0000.0,0011.10,0005.11,0004.48
2023-08-11 02:47:00,SystemResetWarning,0829.1,5.00,000.00,029.1,027.5,000.0,037.5,030.8,18.6,0000.0,0011.73,0005.22,0004.56
2023-08-11 02:48:00,SystemResetWarning,0829.1,4.99,000.00,029.1,027.7,000.0,037.6,030.9,18.5,0000.0,0011.55,0005.33,0004.66
2023-08-11 02:49:00,SystemResetWarning,0829.1,4.99,000.00,029.2,027.9,000.0,037.6,031.0,18.2,0000.0,0011.57,0005.45,0004.75
2023-08-11 02:50:00,SystemResetWarning,0829.1,4.99,000.00,029.2,027.6,000.0,037.6,031.0,18.3,0000.0,0012.45,0005.56,0004.82
2023-08-11 02:51:00,SystemResetWarning,0829.1,5.00,000.00,029.2,025.9,000.0,037.5,030.7,18.2,0001.2,0012.82,0005.63,0004.87
2023-08-11 02:52:00,SystemResetWarning,0829.1,5.00,000.00,029.1,025.5,000.0,037.4,030.6,18.0,0000.1,0013.90,0005.70,0004.90
2023-08-11 02:53:00,SystemResetWarning,0829.1,5.01,000.00,029.1,025.8,000.0,037.4,030.4,18.1,0000.0,0014.62,0005.78,0004.94
2023-08-11 02:54:00,SystemResetWarning,0829.1,4.99,000.00,029.0,026.1,000.0,037.4,030.4,18.1,0000.0,0014.45,0005.80,0004.97
2023-08-11 02:55:00,SystemResetWarning,0829.1,5.00,000.00,029.0,026.5,000.0,037.5,030.6,18.1,0000.0,0014.27,0005.79,0004.98
2023-08-11 02:56:00,SystemResetWarning,0829.1,5.01,000.00,029.0,026.8,000.0,037.5,030.7,17.9,0000.0,0014.37,0005.78,0004.99
2023-08-11 02:57:00,SystemResetWarning,0829.1,5.00,000.00,029.1,027.1,000.0,037.5,030.8,18.0,0000.0,0014.56,0005.78,0004.99
2023-08-11 02:58:00,SystemResetWarning,0829.1,5.00,000.00,029.1,027.4,000.0,037.5,030.8,17.9,0000.2,0014.45,0005.77,0004.98
2023-08-11 02:59:00,SystemResetWarning,0829.2,5.00,000.00,029.1,027.6,000.0,037.6,030.9,17.9,0001.0,0014.80,0005.75,0004.98
